Torna al catalogo

ISIS 2

AttivoScienzaPO
NORAD 5104·PAYLOAD·🇨🇦 Canada

Lanciato Apr 1, 1971 da Vandenberg Space Force Base

Loading…

Prossimi Passaggi (prossime 24 ore)

TLE

AggiornatoSource: Space-Track

Epoca: Sep 14, 2026, 02:06 UTC

1 05104U 71024A   26257.08801278  .00000035  00000-0  12448-3 0  9990
2 05104  88.1611 302.1364 0042234 252.3509 134.9627 12.67886938566015

Traccia ISIS 2 in tempo reale con AllMySat

Download on the App Store